LANDSAT 8 (39084 NORAD) Tracking and Keplerian Element Data

This shows tracking and keplerian element data for the satellite.

Feedback or suggestion? Click here.




ElementValue
Catalog39084
NameLANDSAT 8
Epoch Orbit37941
Epoch Day91.93924512
Epoch Year2020
RAAN162.7704
Inclination98.1882
Eccentricity0.0001561
Argument of Perigee87.5491
Mean Anonmoly272.5873
Mean Motion14.57123411
Decay Rate3.8E-07
L11 39084U 13008A 20091.93924512 .00000038 00000-0 18494-4 0 9994
L22 39084 98.1882 162.7704 0001561 87.5491 272.5873 14.57123411379413

Live tracking and technical data element details for LANDSAT 8 (NORAD 39084). LANDSAT 8 can be tracked NOW for your location showing map with azimuth and elevation plus other details from your city location.

Track the satellite on the map from your city or location and see movement details for azimuth, elevation, latitude, longitude, range, height, and movement on the map or in text.







IsCatalogInMostPopularTable: catalog: 39084, numindb: 349
Update: records affected: 1



GetName: 39084 LANDSAT 8

Hit Count: updated at: Fri, 03 Apr 2020 08:01:33 GMT